Location: Cambroso
(45.2833°N, 12.0850°E)
Time: 19:17:10
(UTC+00:00)

SKYMED 2 - Pass Details

Date: 21 January 2021
Orbit: 621 x 623 km, 97.9° (Epoch: 28 February)

Event Time Altitude Azimuth Distance (km) Brightness Sun altitude
Rises 17:26:48 0° 12° (NNE) 2,914 6.8 -14.5°
Reaches altitude 10° 17:29:00 10° 11° (NNE) 2,003 5.9 -14.9°
Maximum altitude 17:33:22 82° 286° (WNW) 634 3.6 -15.6°
Drops below altitude 10° 17:37:42 10° 198° (SSW) 1,986 6.5 -16.4°
Sets 17:39:52 0° 197° (SSW) 2,887 7.4 -16.8°
